This demonstration page uses our WeatherBlox Daily Observations layout. Learn more.

Left ArrowRight Arrow

Hourly Observations for February 1, 2016

Temp ( °F °C ) Dew Point ( °F °C ) Humidity (%) Winds ( mph kmh ) Pressure ( in mb ) Visibility ( mi km ) Precip ( " mm )
12:53 am 00:53 Clear 30 -1.1 23 -5 75 75 Calm 29.97 1015 10 16 0.00 0.00
1:53 am 01:53 Clear 29 -1.7 23 -5 78 78 Calm 29.97 1015 10 16 0.00 0.00
2:53 am 02:53 Mostly Clear 27 -2.8 23 -5 85 85 Calm 29.98 1015 10 16 0.00 0.00
3:53 am 03:53 Cloudy 28 -2.2 22 -5.6 78 78 Calm 29.97 1015 10 16 0.00 0.00
4:53 am 04:53 Cloudy 28 -2.2 22 -5.6 78 78 Calm 29.98 1015 10 16 0.00 0.00
5:53 am 05:53 Clear 27 -2.8 23 -5 85 85 ENE 5 7 29.98 1015 10 16 0.00 0.00
6:53 am 06:53 Cloudy 29 -1.7 25 -3.9 85 85 Calm 30.00 1016 10 16 0.00 0.00
7:53 am 07:53 Cloudy 31 -0.6 25 -3.9 79 79 ESE 5 7 30.00 1016 10 16 0.00 0.00
8:53 am 08:53 Cloudy 34 1.1 23 -5 64 64 SE 3 6 30.02 1017 10 16 0.00 0.00
9:53 am 09:53 Cloudy 36 2.2 23 -5 59 59 SE 7 11 30.02 1017 10 16 0.00 0.00
10:53 am 10:53 Cloudy 37 2.8 24 -4.4 59 59 SE 5 7 30.01 1016 10 16 0.00 0.00
11:53 am 11:53 Cloudy 40 4.4 25 -3.9 55 55 SSE 15 24 30.01 1016 10 16 0.00 0.00
12:13 pm 12:13 Cloudy with Light Snow 38 3.3 27 -2.8 65 65 ESE 8 13 30.03 1017 10 16 0.00 0.03
12:24 pm 12:24 Cloudy 37 3 27 -3 65 65 ESE 9 15 30.03 1017 10 16 0.00 0.00
12:47 pm 12:47 Cloudy with Light Snow 36 2 28 -2 75 75 SSE 13 20 30.06 1018 3 4 0.00 0.03
12:48 pm 12:48 Cloudy with Light Snow 35 1.7 29 -1.7 78 78 SE 14 22 30.01 1016 3 4 0.00 0.03
12:56 pm 12:56 Cloudy with Light Snow 36 2 28 -2 75 75 SE 8 13 30.00 1016 2 2 0.00 0.00
1:36 pm 13:36 Cloudy with Light Snow 34 1 30 -1 87 87 SE 8 13 30.03 1017 1 2 0.00 0.00
1:53 pm 13:53 Cloudy with Light Snow 33 0.6 31 -0.6 92 92 ESE 6 9 29.98 1015 2 2 0.01 0.25
2:00 pm 14:00 Cloudy with Light Snow 34 1 30 -1 87 87 ESE 8 13 30.00 1016 1 1 0.00 0.00
2:12 pm 14:12 Cloudy with Heavy Snow 34 1 30 -1 87 87 ESE 8 13 30.00 1016 0 0 0.00 0.00
2:23 pm 14:23 Cloudy with Snow 33 0.6 31 -0.6 92 92 ESE 7 11 30.00 1016 1 1 0.03 0.76
2:37 pm 14:37 Cloudy with Snow 33 0.6 31 -0.6 92 92 E 8 13 30.00 1016 1 1 0.05 1.27
2:53 pm 14:53 Cloudy with Snow 33 0.6 31 -0.6 92 92 E 7 11 29.96 1015 1 1 0.06 1.52
3:05 pm 15:05 Cloudy with Light Snow 33 0.6 31 -0.6 92 92 E 8 13 30.00 1016 1 1 0.00 0.03
3:20 pm 15:20 Cloudy with Light Snow 34 1 30 -1 87 87 E 9 15 29.97 1015 1 1 0.00 0.00
3:27 pm 15:27 Cloudy with Light Snow 33 0.6 31 -0.6 92 92 E 5 7 29.97 1015 1 2 0.01 0.25
3:43 pm 15:43 Cloudy with Light Snow 33 0.6 31 -0.6 92 92 E 8 13 29.97 1015 3 4 0.01 0.25
3:53 pm 15:53 Cloudy with Light Snow 33 0.6 30 -1.1 89 89 E 9 15 29.93 1014 3 4 0.01 0.25
4:17 pm 16:17 Cloudy with Light Snow 33 0.6 30 -1.1 89 89 ENE 10 17 29.97 1015 3 5 0.00 0.03
4:21 pm 16:21 Cloudy with Light Snow 33 0.6 30 -1.1 89 89 ENE 8 13 29.97 1015 2 3 0.00 0.03
4:53 pm 16:53 Cloudy with Light Snow 32 0 30 -1.1 92 92 ENE 12 19 29.91 1013 1 2 0.01 0.25
5:00 pm 17:00 Cloudy with Snow 32 0 30 -1 93 93 ENE 12 19 29.94 1014 1 1 0.00 0.00
5:43 pm 17:43 Cloudy with Light Snow 32 0 30 -1 93 93 ENE 12 19 29.94 1014 1 2 0.00 0.00
5:50 pm 17:50 Cloudy with Light Snow 32 0 30 -1 93 93 E 12 19 29.94 1014 1 1 0.00 0.00
5:53 pm 17:53 Clear 36 2 25 -4 65 65 WNW 6 9 29.94 1014 10 16 0.00 0.00
6:01 pm 18:01 Cloudy with Light Snow 32 0 30 -1.1 92 92 E 12 19 29.94 1014 2 3 0.00 0.03
6:37 pm 18:37 Cloudy with Light Snow 32 0 30 -1.1 92 92 ENE 16 26 29.94 1014 3 5 0.00 0.03
6:53 pm 18:53 Cloudy 33 0.6 30 -1.1 89 89 ENE 16 26 29.90 1012 7 11 0.00 0.03
7:10 pm 19:10 Cloudy 34 1 30 -1 87 87 ENE 15 24 29.91 1013 10 16 0.00 0.00
7:24 pm 19:24 Cloudy with Light Snow 34 1 30 -1 87 87 ENE 17 28 29.91 1013 2 3 0.00 0.00
7:53 pm 19:53 Cloudy with Light Snow 33 0.6 30 -1.1 89 89 ENE 18 30 29.91 1013 2 3 0.00 0.03
8:29 pm 20:29 Cloudy with Light Snow 33 0.6 30 -1.1 89 89 NE 16 26 29.91 1013 3 5 0.01 0.25
8:53 pm 20:53 Cloudy with Light Snow 33 0.6 30 -1.1 89 89 NE 18 30 29.90 1012 3 5 0.01 0.25
9:26 pm 21:26 Cloudy with Light Wintry Mix 34 1 30 -1 87 87 NE 21 33 29.88 1012 5 8 0.00 0.00
9:53 pm 21:53 Cloudy with Light Snow 33 0.6 30 -1.1 89 89 ENE 18 30 29.87 1012 4 6 0.00 0.03
10:09 pm 22:09 Cloudy with Light Snow 33 0.6 30 -1.1 89 89 ENE 17 28 29.88 1012 7 11 0.00 0.03
10:39 pm 22:39 Cloudy with Light Snow 33 0.6 30 -1.1 89 89 ENE 18 30 29.88 1012 3 5 0.00 0.03
10:44 pm 22:44 Windy with Snow Likely 34 1 30 -1 87 87 ENE 21 33 29.88 1012 2 3 0.00 0.00
10:53 pm 22:53 Windy with Snow Likely 33 0.6 30 -1.1 89 89 ENE 21 33 29.86 1011 2 2 0.00 0.03
11:31 pm 23:31 Windy with Snow Likely 33 0.6 30 -1.1 89 89 ENE 23 37 29.83 1010 2 3 0.01 0.25
11:53 pm 23:53 Windy with Snow Likely 33 0.6 30 -1.1 89 89 ENE 21 33 29.78 1009 3 5 0.01 0.25

Powered by AerisWeather